Custer, SD

12:33 PM MST on February 21, 2017 (GMT -0700)
Custer County

Weather History for KCUT - November, 2011

Change the Weather History Date:

Tuesday, November 15, 2011

  Actual Average Record
Temperature  
Mean Temperature 20 °F 32 °F  
Max Temperature 27 °F 42 °F 72 °F (1975)
Min Temperature 13 °F 21 °F -10 °F (1955)
Degree Days  
Heating Degree Days 45 33  
Month to date heating degree days 494 451  
Since 1 July heating degree days 1459 1630  
Cooling Degree Days 0 0  
Month to date cooling degree days 0 0  
Year to date cooling degree days 267 177  
Moisture  
Dew Point 8 °F    
Average Humidity 58    
Maximum Humidity 81    
Minimum Humidity 35    
Precipitation  
Precipitation T in 0.02 in 0.14 in (2014)
Month to date precipitation 0.30 0.35  
Year to date precipitation 20.32 18.31  
Sea Level Pressure  
Sea Level Pressure 29.88 in    
Wind  
Wind Speed 8 mph (WNW)    
Max Wind Speed 22 mph    
Max Gust Speed 31 mph    
Visibility 9 miles    
Events Snow    
T = Trace of Precipitation, MM = Missing Value Source: NWS Daily Summary

Daily Weather History Graph

Daily Weather History Graph

Search for Another Location

Airport or City:

Trip Planner

Search our weather history database for the weather conditions in past years. The results will help you decide how hot, cold, wet, or windy it might be!

Date:

Astronomy

Nov. 15, 2011 Rise Set
Actual Time 6:48 AM MST 4:29 PM MST
Civil Twilight 6:17 AM MST 5:00 PM MST
Nautical Twilight 5:42 AM MST 5:34 PM MST
Astronomical Twilight 5:08 AM MST 6:08 PM MST
Moon 8:40 PM MST (11/15) 10:50 AM MST (11/15)
Length of Visible Light 10h 42m
Length of Day
9h 40m
Waning Gibbous, 78% of the Moon is Illuminated
Nov 15
Waning Gibbous
Nov 18
Last Quarter
Nov 24
New
Dec 2
First Quarter
Dec 10
Full

Hourly Weather History & Observations

Time (MST) Temp. Windchill Dew Point Humidity Pressure Visibility Wind Dir Wind Speed Gust Speed Precip Events Conditions
12:53 AM 27.0 °F 18.7 °F 18.0 °F 69% 29.63 in 6.0 mi NW 8.1 mph - 0.00 in Snow Light Snow
1:20 AM 26.6 °F - 21.2 °F 80% 29.59 in 3.0 mi Calm Calm - 0.00 in Snow Light Snow
1:26 AM 26.6 °F - 21.2 °F 80% 29.59 in 3.0 mi Calm Calm - 0.00 in Snow Light Snow
1:53 AM 24.1 °F 19.7 °F 21.0 °F 88% 29.64 in 10.0 mi SSW 3.5 mph - 0.00 in   Mostly Cloudy
2:53 AM 25.0 °F 16.3 °F 19.9 °F 81% 29.65 in 10.0 mi West 8.1 mph - N/A   Overcast
3:53 AM 26.1 °F 15.0 °F 19.9 °F 78% 29.68 in 4.0 mi West 12.7 mph 18.4 mph 0.00 in Snow Light Snow
4:42 AM 24.8 °F 17.9 °F 19.4 °F 80% 29.63 in 8.0 mi Variable 5.8 mph 17.3 mph 0.00 in Snow Light Snow
4:53 AM 25.0 °F 19.3 °F 19.0 °F 78% 29.70 in 9.0 mi NW 4.6 mph - 0.00 in   Scattered Clouds
6:53 AM 19.9 °F 13.4 °F 9.0 °F 62% 29.82 in 10.0 mi Variable 4.6 mph - N/A   Partly Cloudy
7:53 AM 19.9 °F 8.6 °F 8.1 °F 60% 29.89 in 10.0 mi NW 10.4 mph - N/A   Overcast
8:53 AM 23.0 °F 11.7 °F 1.9 °F 40% 29.90 in 10.0 mi WNW 11.5 mph 23.0 mph N/A   Mostly Cloudy
9:53 AM 23.0 °F 11.1 °F -0.0 °F 37% 29.91 in 10.0 mi WNW 12.7 mph 23.0 mph N/A   Mostly Cloudy
10:53 AM 24.1 °F 10.6 °F -0.0 °F 35% 29.93 in 10.0 mi NNW 17.3 mph 26.5 mph N/A   Partly Cloudy
11:53 AM 26.1 °F 16.8 °F 3.0 °F 37% 29.93 in 10.0 mi NW 9.2 mph 19.6 mph N/A   Clear
12:53 PM 25.0 °F 11.3 °F 1.0 °F 36% 29.94 in 10.0 mi WNW 18.4 mph 29.9 mph N/A   Partly Cloudy
1:53 PM 24.1 °F 10.1 °F 3.0 °F 40% 29.96 in 10.0 mi West 18.4 mph 23.0 mph N/A   Partly Cloudy
2:53 PM 23.0 °F 11.7 °F 3.0 °F 42% 29.98 in 10.0 mi WNW 11.5 mph 17.3 mph N/A   Overcast
3:53 PM 21.0 °F 11.4 °F 1.9 °F 44% 29.99 in 10.0 mi NW 8.1 mph - N/A   Overcast
4:53 PM 19.0 °F 12.3 °F -0.0 °F 43% 30.02 in 10.0 mi Variable 4.6 mph - N/A   Scattered Clouds
5:53 PM 19.9 °F 12.1 °F -0.0 °F 42% 30.03 in 10.0 mi NW 5.8 mph - N/A   Mostly Cloudy
6:53 PM 19.9 °F 9.3 °F -0.0 °F 42% 30.06 in 10.0 mi WNW 9.2 mph 16.1 mph N/A   Overcast
7:53 PM 19.0 °F 11.1 °F 1.0 °F 46% 30.09 in 10.0 mi West 5.8 mph - N/A   Overcast
8:53 PM 19.0 °F 12.3 °F 1.9 °F 47% 30.10 in 10.0 mi West 4.6 mph - N/A   Overcast
9:53 PM 18.0 °F 12.7 °F 1.9 °F 50% 30.11 in 10.0 mi Variable 3.5 mph - N/A   Overcast
10:53 PM 15.1 °F - 1.0 °F 54% 30.12 in 10.0 mi Calm Calm - N/A   Overcast
11:53 PM 15.1 °F 9.4 °F 1.9 °F 56% 30.12 in 10.0 mi SSW 3.5 mph - N/A   Overcast